Location: La Balmaz
(46.1577°N, 7.0290°E)
Time: 18:01:39
(UTC+00:00)

Daily predictions for brighter satellites

Satellite Brightness Start Highest point End
(mag) Time Altitude Azimuth Time Altitude Azimuth Time Altitude Azimuth
Cosmos 2084 3.3 19:25:51 10° SSW 19:29:53 73° SE 19:34:01 10° NE
Resurs 01 Rocket 2.2 19:28:47 10° SE 19:32:57 41° ENE 19:37:09 10° N
Gbstr 26 Del rocket 3.8 19:31:34 10° WNW 19:34:58 34° SW 19:38:29 10° SSE
Cosmos 1980 Rocket 4.3 19:33:28 10° NW 19:37:58 25° WSW 19:42:28 10° SSW
Cosmos 1812 4.0 19:37:42 10° NNE 19:40:56 25° ENE 19:44:02 10° SE
Cosmos 1933 3.3 19:37:15 10° N 19:41:18 84° E 19:45:19 10° S
Cosmos 1689 Rocket 3.3 19:39:07 10° N 19:41:45 42° WNW 19:44:22 10° SSW
Cosmos 1782 3.1 19:39:18 10° N 19:43:14 51° ENE 19:47:07 10° SSE
Landsat 7 4.2 19:38:48 10° SE 19:43:22 49° ENE 19:47:58 10° N
MOS 1 4.4 19:41:25 10° SSE 19:47:05 87° WSW 19:52:46 10° NNW
SL-27 R/B 3.1 19:44:46 10° S 19:48:04 35° ESE 19:51:24 10° NE
Cosmos 2333 Rocket 3.2 19:46:43 10° NNW 19:51:49 33° NE 19:56:33 12° ESE
BREEZE-M DEB (TANK) 2.6 19:49:45 10° WNW 19:52:32 58° SSW 19:58:28 12° SE
Cosmos 2237 Rocket 4.4 19:50:52 10° N 19:53:17 13° NE 19:55:42 10° ENE
Cosmos 2322 Rocket 2.3 19:48:25 10° NNW 19:54:05 82° WSW 19:59:41 10° SSE
Cosmos 2195 Rocket 4.4 19:49:36 10° S 19:55:42 81° E 20:01:50 10° N
SPOT 5 4.4 19:52:44 10° ESE 19:55:44 19° ENE 19:58:52 10° NNE
IRS-1A Rocket 4.4 19:50:45 10° S 19:56:15 76° WSW 20:01:47 10° NNW
ARIANE 5 R/B 4.1 19:54:19 12° ESE 19:57:24 23° ENE 20:00:50 10° NNE
BREEZE-M R/B 4.0 19:55:14 10° SSW 19:59:47 22° SSE 20:02:39 10° E
OBJECT-B 3.4 19:57:24 10° SW 19:59:53 20° W 20:02:22 10° NW
Cosmos 923 Rocket 4.4 19:54:41 10° SSW 20:00:00 70° WNW 20:05:21 10° NNE
BREEZE-M DEB (TANK) 3.9 20:01:47 10° WNW 20:05:04 58° SSW 20:12:58 14° SE
Cosmos 2219 Rocket 3.1 20:00:55 10° NNW 20:06:01 34° NE 20:10:11 14° ESE
Resurs 1-3 4.4 20:02:35 10° S 20:06:51 52° W 20:11:09 10° NNW
Cosmos 2056 Rocket 3.5 20:05:33 10° NNW 20:10:55 84° ENE 20:15:29 14° SSE
ATLAS 5 CENTAUR R/B 3.2 20:07:03 10° NNW 20:12:03 37° NE 20:17:08 13° ESE
Spot 2 Rocket 4.0 20:14:03 17° SE 20:17:44 45° ENE 20:22:36 10° N
SPOT 1/Viking Rocket 3.6 20:14:27 14° SSE 20:18:56 71° ENE 20:24:10 10° N
USA 245 3.6 20:16:53 18° SE 20:19:48 51° ENE 20:23:13 10° N
Cosmos 1408 Rocket 3.9 20:17:00 15° SSE 20:20:14 43° E 20:24:20 10° NNE
Cosmos 1092 Rocket 4.5 20:15:07 10° SSW 20:21:21 64° W 20:27:40 10° N
NOSS 2-1 (E) 3.4 20:18:55 10° SW 20:22:09 59° NW 20:25:33 10° NNE
Cosmos 2026 Rocket 4.2 20:18:41 10° SSW 20:24:59 74° W 20:31:14 10° N
CZ-2C R/B 3.7 20:22:06 10° NNE 20:26:32 57° E 20:30:27 13° S
SL-16 R/B 3.5 20:22:16 10° NW 20:27:23 35° WSW 20:32:29 10° S
IGS 5A 4.2 20:23:29 10° S 20:27:31 51° W 20:31:35 10° NNW
GP-B 3.1 20:25:02 10° N 20:29:29 89° W 20:33:40 12° S
CARTOSAT-1 3.8 20:29:08 23° SE 20:31:41 56° ENE 20:35:56 10° N
Cosmos 1151 Rocket 3.5 20:27:44 10° NNW 20:32:04 60° W 20:36:06 12° S
NOSS 3-1 (C) 4.1 20:27:02 10° NW 20:34:31 87° NE 20:40:55 21° SE
Lacrosse 5 2.8 20:33:37 23° SE 20:34:36 24° SE 20:38:39 10° ENE
Okean 3 Rocket 4.0 20:32:16 10° SSW 20:36:45 67° W 20:41:17 10° N
Cosmos 2333 4.2 20:32:41 10° NNW 20:38:19 79° ENE 20:41:51 24° SSE
MetOp-B 4.4 20:36:35 14° S 20:41:13 68° WSW 20:46:35 10° NNW
ERS-2 3.7 20:38:03 10° N 20:41:25 35° WNW 20:44:44 10° SW
Meteor 1-10 Rocket 4.1 20:37:34 10° N 20:43:08 77° ENE 20:46:47 22° SSE
COSMOS 2487 2.5 20:45:40 38° SSE 20:46:34 51° ESE 20:49:52 10° NNE
Cosmos 1515 Rocket 3.5 20:44:58 10° N 20:49:25 87° E 20:51:44 27° S
COSMOS 2428 2.9 20:45:15 10° NNW 20:50:53 59° ENE 20:53:52 28° SE
USA 229 DEB 4.0 20:45:24 10° NW 20:52:43 75° NE 20:57:36 25° SE
COSMOS 2455 2.7 20:46:47 10° SSW 20:52:47 77° ESE 20:58:48 10° NE
USA 229 4.0 20:45:29 10° NW 20:52:49 74° NE 20:57:42 25° SE
Terra 2.2 20:54:31 31° SE 20:56:27 49° ENE 21:01:03 10° N
Cosmos 292 Rocket 4.2 20:52:33 10° NNW 20:57:15 58° WSW 20:59:58 24° S
Cosmos 2084 Rocket 4.2 20:56:42 10° NNW 21:00:42 41° NE 21:02:26 28° E
Cosmos 2360 Rocket 3.1 20:55:28 10° NW 21:00:44 42° WSW 21:04:36 17° S
Cosmos 1048 Rocket 4.0 20:59:49 27° S 21:02:21 54° ESE 21:07:20 10° NNE
Cosmos 972 Rocket 3.9 21:01:59 22° S 21:05:15 67° ESE 21:10:09 10° NNE
Resurs 01 Rocket 3.8 21:06:10 10° SW 21:09:37 22° W 21:13:05 10° NW
NOSS 3-1 (A) 4.1 21:05:49 10° NW 21:13:22 89° SW 21:18:16 29° SE
Cosmos 2266 Rocket 3.9 21:09:42 21° S 21:13:59 85° E 21:20:19 10° N
H-2A R/B 4.2 21:13:12 10° NNE 21:17:03 36° E 21:17:03 36° E
Gblst 52 Del rocket 4.5 21:15:54 10° WNW 21:21:54 74° SSW 21:24:54 35° SE
ERS-1 Rocket 3.1 21:20:14 33° S 21:22:26 70° WSW 21:27:28 10° NNW
Cosmos 2228 Rocket 3.0 21:21:22 10° N 21:25:50 84° E 21:26:53 52° SSE
Cosmos 2285 Rocket 4.0 21:24:01 10° NNW 21:30:20 78° WSW 21:33:03 36° S
Cosmos 2297 Rocket 3.0 21:31:26 31° ESE 21:31:26 31° ESE 21:36:15 10° NE
Cosmos 1805 Rocket 3.4 21:31:35 56° S 21:32:28 79° E 21:36:55 10° NNE
SPOT 5 3.2 21:31:58 35° SSW 21:33:25 51° W 21:37:50 10° NNW
ARIANE 5 R/B 3.5 21:31:51 28° SSW 21:33:37 42° W 21:37:49 10° NNW
BREEZE-M DEB (TANK) 1.9 21:29:28 10° WNW 21:34:36 88° WNW 21:34:36 88° WNW
Cosmos 2315 Rocket 4.0 21:28:28 10° N 21:34:51 90° W 21:37:37 37° S
NOSS 0 Rocket 3.9 21:29:20 10° NNW 21:35:36 75° ENE 21:37:53 41° SE
Cosmos 2333 Rocket 2.9 21:30:53 10° NW 21:36:14 45° WSW 21:38:33 29° SSW
Cosmos 2237 Rocket 2.6 21:33:11 10° NNW 21:38:45 52° ENE 21:40:34 38° ESE
Cosmos 2322 4.4 21:33:47 10° NW 21:39:12 45° WSW 21:41:30 30° SSW
Meteor 1-20 Rocket 4.1 21:40:22 44° S 21:42:12 75° E 21:47:58 10° NNE
Cosmos 1500 Rocket 4.4 21:40:12 25° SW 21:42:25 47° WNW 21:46:45 10° N
Cosmos 1452 Rocket 4.2 21:37:39 10° NNW 21:42:40 47° WSW 21:44:29 33° SSW
Cosmos 2227 Rocket 3.2 21:44:50 29° E 21:44:50 29° E 21:49:12 10° NE
ALOS 2 4.4 21:45:45 18° ENE 21:46:20 19° ENE 21:49:24 10° NNE
Cosmos 2219 Rocket 3.0 21:44:49 10° NW 21:50:03 42° WSW 21:51:53 32° SSW
USA 40 PKM 4.4 21:46:49 10° NW 21:50:26 65° NE 21:50:40 63° ENE
Sich 1 3.0 21:53:27 68° SW 21:53:57 80° W 21:58:17 10° N
ATLAS 5 CENTAUR R/B 2.7 21:51:24 10° NW 21:56:56 55° WSW 21:58:38 42° S
Cosmos 1515 3.8 21:53:57 10° N 21:57:27 72° NW 21:57:27 72° NW
Cosmos 1331 Rocket 4.0 21:53:25 10° NNW 21:58:38 72° WSW 21:59:36 57° SSW
Cosmos 1110 Rocket 4.2 21:54:48 10° NNW 22:00:03 63° WSW 22:01:08 51° SSW
Cosmos 1633 Rocket 3.1 22:10:51 69° ENE 22:10:51 69° ENE 22:14:54 10° NNE
SL-16 R/B 3.3 22:05:56 10° NNW 22:11:09 36° NE 22:12:56 29° E
NOSS 2-2 (C) 4.4 22:07:08 10° NW 22:12:27 84° NE 22:14:24 49° SE
Cosmos 1470 Rocket 4.3 22:14:08 40° ENE 22:14:08 40° ENE 22:17:30 10° NNE
Cosmos 1666 4.1 22:15:50 30° NE 22:15:50 30° NE 22:18:12 10° NNE
Lacrosse 5 2.0 22:12:21 11° WSW 22:17:10 73° NW 22:22:15 10° NE
Cosmos 1666 Rocket 3.6 22:21:09 72° W 22:21:14 72° W 22:25:42 10° N
SL-08 ROCKET BODY 4.3 22:21:32 55° S 22:23:00 89° E 22:29:14 10° N
Cosmos 1340 Rocket 4.2 22:28:39 29° NE 22:28:39 29° NE 22:31:01 10° NNE
Terra 3.7 22:33:24 19° WSW 22:34:28 21° W 22:38:02 10° NW
COSMOS 2428 4.2 22:30:19 10° NW 22:34:43 23° WSW 22:35:52 22° WSW
CZ-4C R/B 3.5 22:29:40 10° NNW 22:36:32 52° NE 22:41:11 25° ESE
COBE Rocket 3.9 22:36:50 65° W 22:36:50 65° W 22:41:34 10° NNW
Timation 2 Rocket 3.9 22:39:27 59° ESE 22:39:41 60° ESE 22:45:46 10° NE
Meteor 2-4 Rocket 3.6 22:34:03 10° NNW 22:40:01 86° WSW 22:40:46 69° S
CZ-3B R/B 2.7 22:33:46 10° WNW 22:39:48 50° W 22:39:48 50° W
Cosmos 1992 Rocket 4.1 22:37:43 10° NNW 22:42:56 63° ENE 22:43:15 61° E
Cosmos 2242 Rocket 4.2 22:40:45 10° N 22:44:34 47° NE 22:44:34 47° NE
Cosmos 1862 Rocket 4.1 22:41:32 10° NNW 22:45:19 52° WNW 22:45:19 52° WNW
USA 267 3.3 22:41:38 10° ENE 22:48:02 55° SE 22:48:10 55° SE
Cosmos 2219 3.2 22:48:17 64° SW 22:49:12 83° WNW 22:55:00 10° NNE
Meteor 1-5 Rocket 4.1 22:49:37 71° S 22:50:18 89° E 22:56:17 10° N
Spot 4 4.0 22:52:09 63° W 22:52:09 63° W 22:56:50 10° NNW
Cosmos 2082 3.8 23:01:12 61° ESE 23:01:12 61° ESE 23:06:41 10° NNE
Cosmos 1703 Rocket 4.0 22:57:39 10° N 23:01:20 60° NNE 23:01:20 60° NNE
Cosmos 909 Rocket 4.2 23:02:47 53° SSW 23:04:37 89° SE 23:12:32 10° NE
Meteor 1-11 Rocket 3.8 23:05:20 60° E 23:05:20 60° E 23:10:46 10° NNE
Okean 1-7 3.5 23:06:09 10° N 23:09:33 56° N 23:09:33 56° N
Cosmos 2181 Rocket 4.2 23:05:36 10° N 23:11:47 55° ENE 23:12:46 50° ESE
Cosmos 2297 Rocket 3.0 23:13:13 33° WSW 23:15:12 45° WNW 23:20:40 10° NNE
Meteor 2-17 Rocket 4.4 23:15:38 62° SW 23:16:29 72° W 23:22:33 10° N
Nimbus 7 Rocket 4.3 23:12:26 10° NNE 23:18:27 74° ESE 23:18:52 70° SE
Meteor 1-23 Rocket 4.5 23:15:18 10° N 23:20:59 58° ENE 23:21:35 56° ESE
USA 234 3.5 23:18:04 24° ESE 23:22:08 67° NNE 23:28:38 10° NW
ALOS 2 3.4 23:23:09 44° WNW 23:23:09 44° WNW 23:26:36 10° NNW
Cosmos 2237 Rocket 3.5 23:17:49 10° NW 23:22:23 27° W 23:22:23 27° W
Cosmos 614 Rocket 4.2 23:23:41 61° ENE 23:23:41 61° ENE 23:28:24 10° NNE
Cosmos 1461 3.7 23:27:18 52° NE 23:27:18 52° NE 23:30:39 10° NE
Cosmos 1709 Rocket 3.9 23:26:19 67° SSW 23:27:14 82° W 23:33:41 10° N
Cosmos 2227 Rocket 2.9 23:26:36 38° W 23:28:11 47° WNW 23:33:39 10° NNE
Meteor 1-13 Rocket 4.1 23:22:57 10° NNW 23:28:39 72° W 23:28:50 71° WSW
Cosmos 2263 Rocket 2.9 23:33:28 40° E 23:33:28 40° E 23:38:22 10° NE
Cosmos 2344 4.1 23:34:40 38° SE 23:35:11 38° ESE 23:42:04 10° NE
Cosmos 1536 3.9 23:40:44 44° NNW 23:40:44 44° NNW 23:43:40 10° N
PSLV R/B 4.1 23:38:27 10° NNE 23:42:34 59° ENE 23:42:34 59° ENE
Cosmos 1869 Rocket 4.1 23:47:06 57° NNW 23:47:06 57° NNW 23:50:51 10° N
Okean 3 4.4 23:42:38 10° NNW 23:45:46 45° NW 23:45:46 45° NW
ASTEX 1 4.2 23:46:47 41° E 23:46:59 42° ENE 23:51:37 10° N
Cosmos 44 3.7 23:47:03 10° NW 23:51:25 58° WNW 23:51:25 58° WNW
Thor Agena Rocket 3.4 23:47:40 10° NNE 23:52:34 84° NE 23:52:34 84° NE
